EW0105 Weather Reports


time (UTC)temp
C
wind
direction
speed
KPH
gust
KPH
rain 1hr
cm
rain 24hr
cm
rain mn
cm
humidity
%
barometer
mb
20260906104544 -17 0.0 0.0 0.00 0.00 0.00 1013.4
20260906103036 21 360 0.0 1.6 0.00 0.00 0.00 100 1013.4
20260906101526 21 360 0.0 0.0 0.00 0.00 0.00 100 1013.3
20260906100009 21 360 0.0 0.0 0.00 0.00 0.00 100 1013.4
20260906094549 21 360 0.0 0.0 0.00 0.00 0.00 100 1013.2
20260906093053 21 360 0.0 0.0 0.00 0.00 0.00 100 1013.2
20260906091533 21 360 0.0 0.0 0.00 0.00 0.00 100 1013.1
20260906090026 21 360 0.0 0.0 0.00 0.00 0.00 100 1013.1
20260906084518 21 360 0.0 0.0 0.00 0.00 0.00 100 1013.0
20260906083013 21 360 0.0 0.0 0.00 0.00 0.00 100 1013.0
20260906081509 21 360 0.0 0.0 0.00 0.00 0.00 100 1012.8
20260906080004 21 360 0.0 0.0 0.00 0.00 0.00 100 1012.8
20260906074602 21 360 0.0 0.0 0.00 0.00 0.00 100 1012.8
20260906073056 21 360 0.0 0.0 0.00 0.00 0.00 100 1012.8
20260906071533 21 360 0.0 1.6 0.00 0.00 0.00 100 1012.8
20260906070029 21 360 0.0 0.0 0.00 0.00 0.00 100 1012.8
20260906064507 20 360 0.0 0.0 0.00 0.00 0.00 100 1013.0
20260906063004 21 360 0.0 0.0 0.00 0.00 0.00 100 1013.1
20260906061541 21 360 0.0 0.0 0.00 0.00 0.00 100 1013.2
20260906060037 21 360 0.0 0.0 0.00 0.00 0.00 100 1013.1
20260906054515 21 360 0.0 0.0 0.00 0.00 0.00 100 1013.0
20260906053011 22 360 0.0 0.0 0.00 0.00 0.00 100 1013.2
20260906051549 22 360 0.0 0.0 0.00 0.00 0.00 100 1013.1
20260906050107 22 360 0.0 1.6 0.00 0.00 0.00 100 1012.8
20260906044524 23 360 0.0 0.0 0.00 0.00 0.00 100 1013.0
20260906043019 24 360 0.0 0.0 0.00 0.00 0.00 100 1012.7
20260906041558 24 360 0.0 0.0 0.00 0.00 0.00 100 1012.6
20260906040105 25 360 0.0 0.0 0.00 0.00 0.00 100 1012.5
20260906034541 25 360 0.0 0.0 0.00 0.00 0.00 100 1012.4
20260906033027 26 360 0.0 0.0 0.00 0.00 0.00 100 1012.4
20260906031505 27 360 0.0 0.0 0.00 0.00 0.00 100 1012.2
20260906024542 27 360 0.0 0.0 0.00 0.00 0.00 100 1012.1
20260906023035 28 360 0.0 0.0 0.00 0.00 0.00 100 1012.0
20260906021519 28 360 0.0 0.0 0.00 0.00 0.00 100 1011.7
20260906020014 28 360 0.0 0.0 0.00 0.00 0.00 100 1011.4
20260906014516 28 360 0.0 0.0 0.00 0.00 0.00 100 1011.2
20260906013005 29 360 0.0 0.0 0.00 0.00 0.00 100 1010.7
20260906011502 29 360 0.0 0.0 0.00 0.00 0.00 100 1010.6
20260906010057 30 360 0.0 0.0 0.00 0.00 0.00 100 1010.6
20260906004554 30 360 0.0 0.0 0.00 0.00 0.00 100 1010.3
20260906003048 30 360 0.0 0.0 0.00 0.00 0.00 2 1010.4
20260906001546 31 360 0.0 0.0 0.00 0.00 0.00 15 1010.3
20260906000028 32 360 0.0 0.0 0.00 0.00 0.00 29 1010.2
20260905234528 32 360 0.0 0.0 0.00 0.00 0.00 38 1010.2
20260905233015 32 360 0.0 0.0 0.00 0.00 0.00 43 1010.1
20260905231510 32 360 0.0 0.0 0.00 0.00 0.00 45 1010.0
20260905230115 33 360 0.0 1.6 0.00 0.00 0.00 47 1009.9
20260905224551 33 360 0.0 0.0 0.00 0.00 0.00 48 1009.9
20260905223034 33 360 0.0 0.0 0.00 0.00 0.00 48 1009.8
20260905221535 34 360 0.0 16.1 0.00 0.00 0.00 48 1009.8
20260905220021 35 360 0.0 17.7 0.00 0.00 0.00 47 1009.7
20260905214522 35 360 1.6 17.7 0.00 0.00 0.00 45 1009.7
20260905213019 35 360 0.0 14.5 0.00 0.00 0.00 45 1009.7
20260905211527 35 360 0.0 9.7 0.00 0.00 0.00 45 1009.7
20260905210016 35 360 0.0 0.0 0.00 0.00 0.00 45 1010.0
20260905204516 36 360 0.0 0.0 0.00 0.00 0.00 44 1010.1
20260905203016 35 360 0.0 9.7 0.00 0.00 0.00 45 1010.2
20260905201512 36 360 0.0 0.0 0.00 0.00 0.00 45 1010.4
20260905200104 36 360 0.0 0.0 0.00 0.00 0.00 43 1010.4
20260905194553 36 360 0.0 12.9 0.00 0.00 0.00 44 1010.4
20260905193028 36 360 0.0 0.0 0.00 0.00 0.00 44 1010.5
20260905191527 35 360 0.0 0.0 0.00 0.00 0.00 43 1010.7
20260905190013 35 360 0.0 0.0 0.00 0.00 0.00 44 1010.9
20260905184516 35 360 0.0 0.0 0.00 0.00 0.00 43 1011.1
20260905183008 35 360 0.0 0.0 0.00 0.00 0.00 43 1011.3
20260905181508 35 360 0.0 0.0 0.00 0.00 0.00 44 1011.3
20260905180006 35 360 0.0 0.0 0.00 0.00 0.00 43 1011.5
20260905174505 34 360 0.0 0.0 0.00 0.00 0.00 44 1011.5
20260905173005 35 360 0.0 0.0 0.00 0.00 0.00 43 1011.7
20260905171503 35 360 0.0 0.0 0.00 0.00 0.00 43 1011.8
20260905170044 35 360 0.0 0.0 0.00 0.00 0.00 41 1011.7
20260905164542 34 360 0.0 0.0 0.00 0.00 0.00 41 1012.1
20260905163022 34 360 0.0 1.6 0.00 0.00 0.00 41 1012.2
20260905161521 34 360 0.0 0.0 0.00 0.00 0.00 40 1012.2
20260905160004 33 360 0.0 0.0 0.00 0.00 0.00 39 1012.4
20260905154607 33 360 0.0 0.0 0.00 0.00 0.00 37 1012.2
20260905153039 33 360 0.0 0.0 0.00 0.00 0.00 35 1012.3
20260905151537 32 360 0.0 0.0 0.00 0.00 0.00 32 1012.4
20260905150018 32 360 0.0 0.0 0.00 0.00 0.00 29 1012.5
20260905144518 31 360 0.0 0.0 0.00 0.00 0.00 26 1012.3
20260905143055 31 360 0.0 0.0 0.00 0.00 0.00 25 1012.2
20260905141549 30 360 0.0 0.0 0.00 0.00 0.00 19 1012.3
20260905140027 30 134 0.0 0.0 0.00 0.00 0.00 12 1012.4
20260905134530 29 360 0.0 0.0 0.00 0.00 0.00 100 1012.4
20260905133001 28 360 0.0 0.0 0.00 0.00 0.00 100 1012.5
20260905131558 27 360 0.0 0.0 0.00 0.00 0.00 100 1012.5
20260905130036 27 360 0.0 0.0 0.00 0.00 0.00 100 1012.6
20260905124532 26 360 0.0 0.0 0.00 0.00 0.00 100 1012.5
20260905123011 26 360 0.0 0.0 0.00 0.00 0.00 100 1012.5
20260905121506 25 360 0.0 0.0 0.00 0.00 0.00 100 1012.3
20260905120052 25 360 0.0 0.0 0.00 0.00 0.00 100 1012.3
20260905114546 -17 0.0 0.0 0.00 0.00 0.00 1012.2
20260905113052 -17 0.0 0.0 0.00 0.00 0.00 1012.1
20260905111538 -17 0.0 0.0 0.00 0.00 0.00 1012.0
20260905110036 -17 0.0 0.0 0.00 0.00 0.00 1011.9